This is the latest recevied weather packets stored in our database for station/object N9NDF. If no packets are shown the sender has not sent any weather packets the latest 10 day(s).
| Time | Temp. | Humidity | Pressure | Rain* | Wind** | Luminosity | Snow |
|---|---|---|---|---|---|---|---|
| 1778352288 | 25.56° C | 41% | 985.1 hPa | 0 mm | - | 908 W/m² | - |
| 1778352229 | 25° C | 40% | 985 hPa | 0 mm | - | 930 W/m² | - |
| 1778352168 | 25° C | 42% | 985 hPa | 0 mm | - | 926 W/m² | - |
| 1778352108 | 25° C | 42% | 985.1 hPa | 0 mm | - | 932 W/m² | - |
| 1778352049 | 25° C | 42% | 985 hPa | 0 mm | - | 923 W/m² | - |
| 1778351989 | 25° C | 42% | 985.1 hPa | 0 mm | - | 920 W/m² | - |
| 1778351928 | 25° C | 43% | 985.1 hPa | 0 mm | - | 916 W/m² | - |
| 1778351868 | 25.56° C | 44% | 985.2 hPa | 0 mm | - | 914 W/m² | - |
| 1778351808 | 25.56° C | 43% | 985.2 hPa | 0 mm | - | 893 W/m² | - |
| 1778351749 | 25.56° C | 44% | 985.1 hPa | 0 mm | - | 901 W/m² | - |
| 1778351688 | 25.56° C | 44% | 985.2 hPa | 0 mm | - | 921 W/m² | - |
| 1778351630 | 25° C | 42% | 985.1 hPa | 0 mm | - | 908 W/m² | - |
| 1778351569 | 25° C | 42% | 985.1 hPa | 0 mm | - | 903 W/m² | - |
| 1778351507 | 25° C | 43% | 985.1 hPa | 0 mm | - | 911 W/m² | - |
| 1778351448 | 25° C | 43% | 985.2 hPa | 0 mm | - | 919 W/m² | - |
| 1778351388 | 25° C | 42% | 985.2 hPa | 0 mm | - | 925 W/m² | - |
| 1778351328 | 25° C | 42% | 985.1 hPa | 0 mm | - | 932 W/m² | - |
| 1778351267 | 25° C | 42% | 985.2 hPa | 0 mm | - | 932 W/m² | - |
| 1778351209 | 25° C | 43% | 985.1 hPa | 0 mm | - | 936 W/m² | - |
| 1778351147 | 25° C | 43% | 985.1 hPa | 0 mm | - | 928 W/m² | - |
| 1778351089 | 25° C | 42% | 985.1 hPa | 0 mm | - | 935 W/m² | - |
| 1778351029 | 25° C | 43% | 985.1 hPa | 0 mm | - | 939 W/m² | - |
| 1778350968 | 25° C | 43% | 985.1 hPa | 0 mm | - | 940 W/m² | - |
| 1778350908 | 25° C | 43% | 985.1 hPa | 0 mm | - | 941 W/m² | - |
| 1778350845 | 25° C | 46% | 985.1 hPa | 0 mm | - | 931 W/m² | - |
* Rain latest hour (hover to see other rain measurements)
** Current wind speed in m/s (hover to see current wind gust speed)